CAPE
3052 3220 3718 4038 4132 4548 4397 4398 4518 4548 4752 4875 4605 4377 4593 4660 4967 4915 4798 3486 3192 3170 2682 2441 2280 2635 2763 2409 1827 1193 1132 888 513 509 417 333 78 277 47 36 0 0 0
3184 3797 4179 4436 4506 4568 4645 4585 4667 4738 4802 4829 4722 4732 4687 4761 4934 4480 3304 2485 1096 1241 1564 1745 2472 1950 1806 1918 1570 1963 1120 918 908 1056 289 0 72 139 428 19 0 0 9
3306 4071 4469 4661 4865 5005 5028 4967 4928 4894 4649 3921 4561 4714 4840 4626 4881 3892 2346 1445 391 1397 1545 1425 2237 1766 1739 1763 705 654 630 417 73 0 0 0 0 0 0 0 6 0 45
3210 4009 4422 4654 4808 4867 5046 5027 4929 4873 4622 4649 4757 4883 4815 4643 4643 3813 2255 1069 952 1172 1064 1559 1790 1550 1258 1160 417 838 76 0 0 0 0 0 0 0 0 0 0 33 37
3982 4131 4425 4635 4483 4511 4684 4451 4404 4700 4494 4344 4365 4382 4552 4330 3984 4213 2802 1387 1468 1373 1380 1955 1019 647 184 1 0 0 0 0 0 0 0 0 0 0 0 0 5 19 34
4197 4271 4530 4641 4493 4653 4464 4304 4421 4339 4211 4558 4310 4241 4314 3607 3334 3098 2434 1972 1867 1805 1843 1373 568 104 0 0 0 0 0 0 0 0 0 0 3 0 0 8 52 79 0
4499 4400 4507 4691 4547 4664 4129 4263 4094 4258 4572 4434 4062 3636 4205 3609 3205 2822 1476 2250 1720 2115 1282 564 198 0 0 0 0 0 0 0 0 0 0 0 2 2 24 37 162 52 27
4320 4276 4564 4592 4342 4427 4568 4590 4670 4459 4084 3877 3962 3694 4442 3279 2845 2429 1539 2643 1999 1486 1340 361 0 0 0 0 0 0 0 0 0 0 0 0 0 0 52 54 74 41 2
3996 4329 4300 4369 4346 4375 4342 4443 4554 3982 4299 3870 3967 4077 3191 2723 2204 1644 1887 1883 1345 957 335 0 0 0 0 0 0 0 0 0 0 0 0 0 0 3 2 6 0 0 0
3963 4057 4426 4505 4510 4266 4405 4728 4673 4335 3788 3666 2953 2576 2663 1962 1446 1360 1404 1019 1069 24 0 0 0 0 0 0 0 0 0 0 0 0 1 0 0 15 9 52 1 0 0
3719 4165 4317 4342 4697 4753 4797 4532 3934 3609 2554 2404 2594 2856 1940 1623 996 1036 717 918 252 0 0 0 0 0 0 0 0 0 0 0 0 4 0 0 3 20 25 42 53 0 0
4205 4111 3979 4377 3967 4211 3826 3510 2738 2282 2583 2792 3170 1876 1507 1227 722 523 78 4 0 0 0 0 0 0 0 0 0 0 0 0 0 0 0 0 0 0 47 48 64 0 0
4282 4460 4511 4689 3775 3505 2638 2263 2153 2567 2819 2693 2205 1531 1110 844 427 36 0 0 0 0 0 0 0 0 0 0 0 0 0 0 0 0 0 0 0 0 91 68 42 42 0
4831 4930 4762 3830 3384 3047 2139 2256 2468 2697 2908 2489 2185 1271 984 450 4 0 0 0 0 0 0 0 0 0 0 0 0 0 0 0 0 0 0 0 0 0 0 2 5 23 15
4189 3693 3105 3124 2953 2709 2303 2415 2634 2772 2509 2131 1355 904 830 111 0 0 0 0 0 0 0 0 0 0 0 0 0 0 0 0 0 0 0 0 0 0 0 0 0 0 5
2908 2967 2803 2414 2548 2279 2357 2523 2792 2383 1715 1226 946 592 90 0 0 0 0 0 0 0 0 0 0 0 0 0 0 0 0 0 0 0 0 0 0 0 0 0 0 0 0
3111 2639 2197 1905 2207 2381 2557 2556 2523 1702 1358 1320 1096 336 0 0 0 0 0 0 0 0 0 0 0 0 0 0 0 0 0 0 0 0 0 0 0 0 0 0 0 0 0
2783 1959 2318 2068 2100 2458 2598 2313 1820 1471 1300 1148 526 72 0 0 0 0 0 0 0 0 0 0 0 0 0 0 0 0 0 0 0 0 0 0 0 0 0 0 0 0 0
2620 2792 2893 2983 2628 2364 2252 1994 1782 1409 713 578 64 0 0 0 0 0 0 0 0 0 0 0 0 0 0 0 0 0 0 0 0 0 0 0 0 0 0 0 0 0 0
3022 2488 2487 2660 2546 2558 2309 1791 1334 901 232 128 0 0 0 0 0 0 0 0 0 0 0 0 0 0 0 0 0 0 0 0 0 0 0 0 0 0 0 0 0 0 0
2883 2771 2420 2602 2536 1783 1465 1103 960 821 321 62 0 0 0 0 0 0 0 0 0 0 0 0 0 0 0 0 0 0 0 0 0 0 0 0 0 0 0 0 0 0 0
2724 2722 2739 2526 1648 1164 1013 1037 1013 811 465 390 22 0 0 0 0 0 0 0 0 0 0 0 0 0 0 0 0 0 0 0 0 0 0 0 0 0 0 0 0 0 0
2590 2658 2512 1694 1086 664 886 1000 810 547 500 257 29 0 0 0 0 0 0 0 0 0 0 0 0 0 0 0 0 0 0 0 0 0 0 0 0 0 0 0 0 0 0
2478 2559 1566 1068 817 770 771 741 645 288 352 278 1 0 0 0 0 0 0 0 0 0 0 0 0 0 0 0 0 0 0 0 0 0 0 0 0 0 0 0 0 0 0
1848 1531 776 720 684 676 637 508 336 200 206 76 0 0 0 0 0 0 0 0 0 0 0 0 0 0 0 0 0 0 0 0 0 0 0 0 0 0 0 0 0 0 0
1005 772 616 602 586 430 304 209 67 25 14 0 0 0 0 0 0 0 0 0 0 0 0 0 0 0 0 0 0 0 0 0 0 0 0 0 0 0 0 0 0 0 0
CIN
-15 -12 -6 -3 -2 -0 -7 -15 -7 -6 -0 -0 -2 -0 -0 -0 -0 -1 -0 -35 -0 -0 -0 -0 -0 -0 -0 -0 -0 -4 -1 -14 -0 -0 -0 -3 -70 -45 -70 -125 -0 -0 -0
-53 -19 -1 -3 -9 -10 -9 -14 -10 -7 -8 -5 -3 -0 -0 -0 -0 -3 -6 -1 -129 -66 -14 -12 -0 -1 -2 -0 -0 -1 -1 -0 -0 -0 -3 -0 -73 -49 -2 -75 -0 -0 -159
-91 -30 -10 -3 -0 -0 -1 -15 -17 -10 -13 -32 -11 -8 -2 -4 -0 -2 -26 -55 -90 -18 -15 -27 -0 -0 -0 -0 -0 -0 -0 -0 -19 -0 -0 -0 -0 -0 -0 -0 -148 -0 -77
-109 -91 -60 -31 -24 -29 -19 -16 -20 -18 -22 -25 -11 -6 -7 -2 -0 -1 -13 -74 -26 -12 -62 -8 -0 -0 -1 -0 -0 -0 -55 -0 -0 -0 -0 -0 -0 -0 -0 -0 -0 -93 -58
-107 -116 -117 -86 -92 -76 -52 -71 -66 -39 -55 -44 -20 -16 -3 -1 -0 -0 -0 -21 -0 -1 -19 -1 -22 -28 -68 -11 -0 -0 -0 -0 -0 -0 -0 -0 -0 -0 -0 -0 -0 -86 -28
-105 -127 -116 -95 -104 -83 -89 -91 -73 -71 -58 -19 -31 -15 -4 -10 -4 -16 -26 -31 -8 -4 -0 -2 -58 -83 -0 -0 -0 -0 -0 -0 -0 -0 -0 -0 -0 -0 -0 -0 -0 -0 -0
-125 -144 -136 -120 -133 -101 -138 -104 -108 -80 -47 -52 -62 -60 -8 -4 -2 -21 -100 -7 -20 -2 -13 -46 -86 -0 -0 -0 -0 -0 -0 -0 -0 -0 -0 -0 -0 -0 -0 -0 -0 -0 -0
-176 -179 -151 -155 -180 -144 -109 -96 -72 -72 -89 -94 -71 -46 -0 -1 -15 -21 -69 -0 -1 -2 -0 -67 -0 -0 -0 -0 -0 -0 -0 -0 -0 -0 -0 -0 -0 -0 -0 -0 -0 -0 -0
-212 -205 -207 -197 -178 -154 -146 -122 -102 -123 -74 -97 -61 -17 -16 -19 -44 -67 -7 -0 -13 -22 -89 -5 -0 -0 -0 -0 -0 -0 -0 -0 -0 -0 -0 -0 -0 -0 -0 -0 -0 -0 -0
-219 -243 -190 -171 -150 -166 -130 -78 -83 -94 -100 -95 -131 -98 -33 -61 -86 -65 -17 -58 -26 -60 -0 -0 -0 -0 -0 -0 -0 -0 -0 -0 -0 -0 -0 -0 -0 -6 -9 -0 -0 -0 -0
-238 -228 -216 -193 -120 -96 -72 -99 -128 -124 -209 -210 -112 -34 -77 -75 -156 -87 -102 -33 -115 -0 -0 -0 -0 -0 -0 -0 -0 -0 -0 -0 -0 -5 -0 -0 -0 -0 -3 -0 -0 -0 -0
-246 -276 -261 -172 -183 -154 -175 -176 -222 -241 -175 -111 -19 -87 -121 -122 -201 -185 -311 -97 -0 -0 -0 -0 -0 -0 -0 -0 -0 -0 -0 -0 -0 -0 -0 -0 -0 -0 -0 -9 -0 -0 -0
-256 -198 -160 -95 -205 -201 -285 -298 -262 -155 -106 -77 -69 -83 -134 -139 -230 -158 -0 -0 -0 -0 -0 -0 -0 -0 -0 -0 -0 -0 -0 -0 -0 -0 -0 -0 -0 -0 -0 -16 -21 -35 -0
-136 -100 -101 -204 -213 -207 -296 -230 -163 -101 -52 -36 -41 -122 -135 -170 -278 -0 -0 -0 -0 -0 -0 -0 -0 -0 -0 -0 -0 -0 -0 -0 -0 -0 -0 -0 -0 -0 -0 -0 -0 -0 -7
-196 -245 -297 -238 -219 -220 -223 -152 -94 -46 -38 -45 -125 -198 -142 -281 -0 -0 -0 -0 -0 -0 -0 -0 -0 -0 -0 -0 -0 -0 -0 -0 -0 -0 -0 -0 -0 -0 -0 -0 -0 -0 -0
-336 -286 -268 -304 -234 -234 -191 -137 -61 -56 -93 -135 -167 -226 -422 -0 -0 -0 -0 -0 -0 -0 -0 -0 -0 -0 -0 -0 -0 -0 -0 -0 -0 -0 -0 -0 -0 -0 -0 -0 -0 -0 -0
-238 -273 -314 -326 -241 -194 -135 -95 -84 -125 -132 -104 -117 -268 -0 -0 -0 -0 -0 -0 -0 -0 -0 -0 -0 -0 -0 -0 -0 -0 -0 -0 -0 -0 -0 -0 -0 -0 -0 -0 -0 -0 -0
-243 -349 -256 -267 -222 -158 -104 -102 -131 -160 -157 -146 -249 -362 -0 -0 -0 -0 -0 -0 -0 -0 -0 -0 -0 -0 -0 -0 -0 -0 -0 -0 -0 -0 -0 -0 -0 -0 -0 -0 -0 -0 -0
-237 -166 -124 -93 -118 -120 -109 -114 -112 -137 -263 -282 -431 -0 -0 -0 -0 -0 -0 -0 -0 -0 -0 -0 -0 -0 -0 -0 -0 -0 -0 -0 -0 -0 -0 -0 -0 -0 -0 -0 -0 -0 -0
-99 -142 -124 -87 -93 -64 -63 -88 -138 -215 -437 -413 -0 -0 -0 -0 -0 -0 -0 -0 -0 -0 -0 -0 -0 -0 -0 -0 -0 -0 -0 -0 -0 -0 -0 -0 -0 -0 -0 -0 -0 -0 -0
-122 -123 -127 -95 -50 -90 -111 -147 -179 -219 -355 -453 -0 -0 -0 -0 -0 -0 -0 -0 -0 -0 -0 -0 -0 -0 -0 -0 -0 -0 -0 -0 -0 -0 -0 -0 -0 -0 -0 -0 -0 -0 -0
-110 -125 -98 -68 -104 -154 -156 -156 -167 -207 -280 -280 -293 -0 -0 -0 -0 -0 -0 -0 -0 -0 -0 -0 -0 -0 -0 -0 -0 -0 -0 -0 -0 -0 -0 -0 -0 -0 -0 -0 -0 -0 -0
-89 -89 -70 -107 -168 -231 -186 -173 -216 -246 -239 -277 -262 -0 -0 -0 -0 -0 -0 -0 -0 -0 -0 -0 -0 -0 -0 -0 -0 -0 -0 -0 -0 -0 -0 -0 -0 -0 -0 -0 -0 -0 -0
-70 -60 -125 -165 -195 -215 -198 -206 -193 -267 -234 -227 -45 -0 -0 -0 -0 -0 -0 -0 -0 -0 -0 -0 -0 -0 -0 -0 -0 -0 -0 -0 -0 -0 -0 -0 -0 -0 -0 -0 -0 -0 -0
-78 -106 -177 -202 -222 -201 -206 -189 -200 -211 -202 -251 -0 -0 -0 -0 -0 -0 -0 -0 -0 -0 -0 -0 -0 -0 -0 -0 -0 -0 -0 -0 -0 -0 -0 -0 -0 -0 -0 -0 -0 -0 -0
-110 -161 -187 -213 -232 -226 -239 -222 -259 -304 -306 -0 -0 -0 -0 -0 -0 -0 -0 -0 -0 -0 -0 -0 -0 -0 -0 -0 -0 -0 -0 -0 -0 -0 -0 -0 -0 -0 -0 -0 -0 -0 -0
Wind_Speed
9 9 9 9 12 12 12 17 21 22 21 25 27 28 29 29 32 45 51 29 30 35 39 39 38 40 40 46 44 42 44 46 41 32 32 32 nan 28 nan nan nan nan nan
9 9 11 11 11 14 17 20 21 24 26 28 32 33 36 34 35 50 52 40 35 37 40 36 38 43 43 46 46 48 46 48 42 32 31 nan nan 27 27 nan nan nan nan
9 10 11 12 14 16 18 21 24 27 29 31 34 36 35 34 34 50 58 55 52 46 41 38 42 43 48 47 45 45 46 44 nan nan nan nan nan nan nan nan nan nan nan
9 9 12 14 17 22 25 27 30 28 27 31 30 32 35 32 31 42 47 58 45 41 41 41 46 50 48 47 46 47 nan nan nan nan nan nan nan nan nan nan nan nan nan
7 10 14 18 22 27 27 26 29 29 28 30 31 33 39 36 36 34 45 41 35 40 43 45 50 52 50 nan nan nan nan nan nan nan nan nan nan nan nan nan nan nan nan
8 13 16 18 22 23 24 25 26 30 33 34 34 36 43 45 42 45 33 30 40 43 45 50 51 51 nan nan nan nan nan nan nan nan nan nan nan nan nan nan nan nan nan
8 12 13 18 22 24 24 27 31 35 40 42 43 41 47 46 48 42 31 35 41 41 47 48 49 nan nan nan nan nan nan nan nan nan nan nan nan nan nan nan 35 nan nan
10 12 16 16 18 22 26 30 33 36 43 47 48 50 47 35 36 34 35 40 40 44 43 44 nan nan nan nan nan nan nan nan nan nan nan nan nan nan nan nan nan nan nan
12 16 19 23 25 26 29 33 37 41 48 50 50 52 37 32 32 35 35 41 39 42 42 nan nan nan nan nan nan nan nan nan nan nan nan nan nan nan nan nan nan nan nan
18 21 24 25 28 30 32 37 40 48 51 50 51 41 37 34 29 33 36 40 41 nan nan nan nan nan nan nan nan nan nan nan nan nan nan nan nan nan nan nan nan nan nan
22 26 28 28 31 36 38 42 48 52 54 46 44 36 34 34 31 25 24 39 40 nan nan nan nan nan nan nan nan nan nan nan nan nan nan nan nan nan nan nan nan nan nan
26 31 32 32 35 41 44 48 51 56 49 46 38 33 33 33 31 29 nan nan nan nan nan nan nan nan nan nan nan nan nan nan nan nan nan nan nan nan nan nan nan nan nan
33 35 36 41 46 46 50 51 52 47 41 38 33 33 33 31 32 nan nan nan nan nan nan nan nan nan nan nan nan nan nan nan nan nan nan nan nan nan nan nan nan nan nan
39 42 44 47 48 49 50 52 45 37 35 30 31 33 33 34 nan nan nan nan nan nan nan nan nan nan nan nan nan nan nan nan nan nan nan nan nan nan nan nan nan nan nan
46 46 46 48 51 50 45 40 34 30 29 28 33 33 34 36 nan nan nan nan nan nan nan nan nan nan nan nan nan nan nan nan nan nan nan nan nan nan nan nan nan nan nan
52 48 48 51 52 49 40 35 37 31 29 33 29 32 nan nan nan nan nan nan nan nan nan nan nan nan nan nan nan nan nan nan nan nan nan nan nan nan nan nan nan nan nan
48 51 51 57 47 38 34 34 35 34 42 38 33 38 nan nan nan nan nan nan nan nan nan nan nan nan nan nan nan nan nan nan nan nan nan nan nan nan nan nan nan nan nan
54 56 51 39 35 32 30 33 31 31 32 33 29 nan nan nan nan nan nan nan nan nan nan nan nan nan nan nan nan nan nan nan nan nan nan nan nan nan nan nan nan nan nan
44 39 38 31 29 28 27 29 29 31 32 34 nan nan nan nan nan nan nan nan nan nan nan nan nan nan nan nan nan nan nan nan nan nan nan nan nan nan nan nan nan nan nan
39 43 32 28 29 26 26 27 29 31 34 34 nan nan nan nan nan nan nan nan nan nan nan nan nan nan nan nan nan nan nan nan nan nan nan nan nan nan nan nan nan nan nan
33 31 32 29 22 25 25 27 30 32 33 nan nan nan nan nan nan nan nan nan nan nan nan nan nan nan nan nan nan nan nan nan nan nan nan nan nan nan nan nan nan nan nan
33 32 29 25 26 26 27 29 31 31 32 31 nan nan nan nan nan nan nan nan nan nan nan nan nan nan nan nan nan nan nan nan nan nan nan nan nan nan nan nan nan nan nan
32 31 28 28 28 30 30 32 30 28 31 30 nan nan nan nan nan nan nan nan nan nan nan nan nan nan nan nan nan nan nan nan nan nan nan nan nan nan nan nan nan nan nan
34 32 32 31 29 30 31 33 32 31 29 28 nan nan nan nan nan nan nan nan nan nan nan nan nan nan nan nan nan nan nan nan nan nan nan nan nan nan nan nan nan nan nan
37 28 29 30 31 30 32 31 30 29 28 nan nan nan nan nan nan nan nan nan nan nan nan nan nan nan nan nan nan nan nan nan nan nan nan nan nan nan nan nan nan nan nan
38 30 28 27 29 26 29 28 nan nan nan nan nan nan nan nan nan nan nan nan nan nan nan nan nan nan nan nan nan nan nan nan nan nan nan nan nan nan nan nan nan nan nan
Wind_Direction
354 4 9 14 19 10 15 27 27 21 15 7 14 20 11 9 357 339 343 332 356 12 360 358 359 349 344 341 336 337 337 330 334 337 332 320 nan 327 nan nan nan nan nan
352 27 29 29 23 24 21 22 14 14 16 22 9 12 12 7 358 341 326 325 357 10 357 354 353 344 340 336 341 333 338 340 339 339 328 nan nan 331 329 nan nan nan nan
20 34 55 40 24 19 13 16 17 16 21 20 12 7 0 0 359 333 320 327 352 358 349 343 347 337 337 332 336 339 337 338 nan nan nan nan nan nan nan nan nan nan nan
30 37 38 31 27 28 27 20 16 12 16 11 1 356 351 347 347 333 327 341 348 343 337 341 338 335 336 334 342 337 nan nan nan nan nan nan nan nan nan nan nan nan nan
40 27 39 31 33 29 22 15 17 20 9 355 353 354 344 334 326 334 330 334 344 337 336 337 321 320 314 nan nan nan nan nan nan nan nan nan nan nan nan nan nan nan nan
28 25 29 27 24 16 11 13 8 1 352 341 342 342 330 330 314 307 325 328 329 332 329 326 324 322 nan nan nan nan nan nan nan nan nan nan nan nan nan nan nan nan nan
358 359 4 8 8 6 356 355 345 338 331 326 332 336 325 322 311 312 322 324 327 329 328 330 332 nan nan nan nan nan nan nan nan nan nan nan nan nan nan nan 2 nan nan
347 7 352 338 342 345 338 334 329 321 319 320 326 327 323 312 311 321 323 322 324 328 329 319 nan nan nan nan nan nan nan nan nan nan nan nan nan nan nan nan nan nan nan
331 343 341 342 339 332 326 320 315 311 309 315 324 316 312 316 317 320 327 322 320 322 318 nan nan nan nan nan nan nan nan nan nan nan nan nan nan nan nan nan nan nan nan
316 317 326 324 325 322 314 309 301 305 310 317 309 307 310 314 317 324 332 318 326 nan nan nan nan nan nan nan nan nan nan nan nan nan nan nan nan nan nan nan nan nan nan
297 302 310 311 305 307 301 298 300 302 310 308 306 308 308 315 314 310 321 324 323 nan nan nan nan nan nan nan nan nan nan nan nan nan nan nan nan nan nan nan nan nan nan
291 291 297 297 298 296 296 299 302 307 304 304 303 304 306 310 306 302 nan nan nan nan nan nan nan nan nan nan nan nan nan nan nan nan nan nan nan nan nan nan nan nan nan
279 284 286 288 288 291 297 299 304 302 301 300 305 303 308 312 309 nan nan nan nan nan nan nan nan nan nan nan nan nan nan nan nan nan nan nan nan nan nan nan nan nan nan
278 279 281 283 284 291 298 300 299 297 299 300 303 307 316 317 nan nan nan nan nan nan nan nan nan nan nan nan nan nan nan nan nan nan nan nan nan nan nan nan nan nan nan
272 272 276 279 282 290 287 291 296 292 297 306 306 312 318 320 nan nan nan nan nan nan nan nan nan nan nan nan nan nan nan nan nan nan nan nan nan nan nan nan nan nan nan
267 271 278 278 283 290 285 275 256 271 274 271 282 312 nan nan nan nan nan nan nan nan nan nan nan nan nan nan nan nan nan nan nan nan nan nan nan nan nan nan nan nan nan
269 273 275 279 287 283 285 286 283 270 264 261 275 290 nan nan nan nan nan nan nan nan nan nan nan nan nan nan nan nan nan nan nan nan nan nan nan nan nan nan nan nan nan
269 271 278 279 275 278 283 288 290 295 293 290 273 nan nan nan nan nan nan nan nan nan nan nan nan nan nan nan nan nan nan nan nan nan nan nan nan nan nan nan nan nan nan
267 273 280 272 279 282 285 291 295 294 295 297 nan nan nan nan nan nan nan nan nan nan nan nan nan nan nan nan nan nan nan nan nan nan nan nan nan nan nan nan nan nan nan
263 266 258 270 277 287 290 293 291 295 297 303 nan nan nan nan nan nan nan nan nan nan nan nan nan nan nan nan nan nan nan nan nan nan nan nan nan nan nan nan nan nan nan
255 255 259 272 286 286 290 291 293 295 296 nan nan nan nan nan nan nan nan nan nan nan nan nan nan nan nan nan nan nan nan nan nan nan nan nan nan nan nan nan nan nan nan
254 263 269 278 280 285 287 287 288 289 296 302 nan nan nan nan nan nan nan nan nan nan nan nan nan nan nan nan nan nan nan nan nan nan nan nan nan nan nan nan nan nan nan
257 270 275 275 277 278 278 278 282 289 292 296 nan nan nan nan nan nan nan nan nan nan nan nan nan nan nan nan nan nan nan nan nan nan nan nan nan nan nan nan nan nan nan
263 268 272 272 274 279 278 279 283 291 297 300 nan nan nan nan nan nan nan nan nan nan nan nan nan nan nan nan nan nan nan nan nan nan nan nan nan nan nan nan nan nan nan
257 254 261 266 267 269 273 280 287 296 299 nan nan nan nan nan nan nan nan nan nan nan nan nan nan nan nan nan nan nan nan nan nan nan nan nan nan nan nan nan nan nan nan
248 247 250 256 266 272 277 282 nan nan nan nan nan nan nan nan nan nan nan nan nan nan nan nan nan nan nan nan nan nan nan nan nan nan nan nan nan nan nan nan nan nan nan